Tracking 34305 objects as of 6-Jun-2026
HD Live streaming from Space Station
objects crossing your sky now

STARLINK-37609

Track STARLINK-37609 now!
10-day predictions
STARLINK-37609 is classified as:


NORAD ID: 69036
Int'l Code: 2026-101M
Perigee: 424.9 km
Apogee: 427.4 km
Inclination: 97.3 °
Period: 92.9 minutes
Semi major axis: 6797 km
RCS: Unknown
Launch date: May 6, 2026
Source: United States (US)
Launch site: AIR FORCE WESTERN TEST RANGE (AFWTR)
Your satellite tracking list
Your tracking list is empty




NASA's NSSDC Master Catalog

Two Line Element Set (TLE):
1 69036U 26101M   26156.50173679  .00069318  00000-0  12635-2 0  9998
2 69036  97.2848  11.3923 0001876  99.6336 260.5127 15.49222868  4779
Source of the keplerian elements: AFSPC